LCKY02 KNDZ-79J

Flight info

Callsign LCKY02
Flight time N/A
Altitude 3000
Route KNDZ BAKOS GALON HACKK 0J4 79J
Aircraft B06/L-VGD/C

Departure

Time 2026-05-08 02:33
Airport Whiting Field Naval Air Station South Airport (KNDZ)

Arrival

Time N/A
Airport 79J
Time Latitude Longitude Altitude Speed Heading
2026-05-08 02:17 30.70160 -87.01729 177 ft 0 kts 183°
2026-05-08 02:30 30.70159 -87.01730 181 ft 3 kts 142°
2026-05-08 02:30 30.70161 -87.01652 225 ft 20 kts 59°
2026-05-08 02:30 30.70164 -87.01510 228 ft 20 kts 75°
2026-05-08 02:31 30.70073 -87.01364 230 ft 27 kts 134°
2026-05-08 02:31 30.69829 -87.01256 256 ft 45 kts 176°
2026-05-08 02:31 30.69548 -87.01260 217 ft 34 kts 183°
2026-05-08 02:31 30.69412 -87.01333 203 ft 21 kts 319°
2026-05-08 02:32 30.69620 -87.01573 217 ft 61 kts 320°
2026-05-08 02:32 30.69975 -87.01949 359 ft 67 kts 320°
2026-05-08 02:32 30.70320 -87.02267 627 ft 66 kts 326°
2026-05-08 02:32 30.70753 -87.02584 774 ft 83 kts 330°
2026-05-08 02:33 30.71280 -87.02956 983 ft 95 kts 329°
2026-05-08 02:33 30.71876 -87.03358 1199 ft 102 kts 333°
2026-05-08 02:33 30.72563 -87.03538 1418 ft 106 kts
2026-05-08 02:33 30.73204 -87.03143 1726 ft 108 kts 43°
2026-05-08 02:34 30.73482 -87.02306 1942 ft 119 kts 79°
2026-05-08 02:34 30.73588 -87.01416 2396 ft 104 kts 82°
2026-05-08 02:34 30.73629 -87.00576 2791 ft 106 kts 90°
2026-05-08 02:34 30.73676 -86.99685 3016 ft 116 kts 83°
2026-05-08 02:35 30.73738 -86.98731 3069 ft 123 kts 85°
2026-05-08 02:35 30.73764 -86.97724 3082 ft 129 kts 88°
2026-05-08 02:35 30.73817 -86.96686 3143 ft 129 kts 79°
2026-05-08 02:35 30.74106 -86.95633 2900 ft 140 kts 68°
2026-05-08 02:36 30.74433 -86.94592 2908 ft 134 kts 70°
2026-05-08 02:36 30.74745 -86.93591 2927 ft 131 kts 66°
2026-05-08 02:36 30.75130 -86.92647 2897 ft 129 kts 59°
2026-05-08 02:36 30.75548 -86.91740 2966 ft 121 kts 60°
2026-05-08 02:37 30.75949 -86.90886 3051 ft 122 kts 60°
2026-05-08 02:37 30.76338 -86.89986 3085 ft 128 kts 62°
2026-05-08 02:37 30.76706 -86.89025 3054 ft 133 kts 66°
2026-05-08 02:37 30.77086 -86.88055 3026 ft 130 kts 62°
2026-05-08 02:38 30.77449 -86.87093 2949 ft 131 kts 65°
2026-05-08 02:38 30.77874 -86.86163 2895 ft 128 kts 56°
2026-05-08 02:38 30.78356 -86.85324 2969 ft 120 kts 56°
2026-05-08 02:38 30.78796 -86.84508 3026 ft 118 kts 57°
2026-05-08 02:39 30.79215 -86.83668 3033 ft 124 kts 60°
2026-05-08 02:39 30.79620 -86.82775 3082 ft 122 kts 61°
2026-05-08 02:39 30.80032 -86.81910 3118 ft 126 kts 59°
2026-05-08 02:39 30.80532 -86.81049 3094 ft 126 kts 51°
2026-05-08 02:40 30.81057 -86.80225 3100 ft 131 kts 53°
2026-05-08 02:40 30.81423 -86.79244 3181 ft 135 kts 75°
2026-05-08 02:40 30.81655 -86.78171 3248 ft 138 kts 75°
2026-05-08 02:40 30.81865 -86.77109 3325 ft 135 kts 77°
2026-05-08 02:41 30.82071 -86.75997 3117 ft 145 kts 76°
2026-05-08 02:41 30.82283 -86.74878 3034 ft 136 kts 75°
2026-05-08 02:41 30.82563 -86.73850 2922 ft 130 kts 68°
2026-05-08 02:41 30.82799 -86.72873 2928 ft 121 kts 79°
2026-05-08 02:42 30.82900 -86.71933 2991 ft 113 kts 78°
2026-05-08 02:42 30.83115 -86.71029 2969 ft 116 kts 72°
2026-05-08 02:42 30.83330 -86.70108 2934 ft 119 kts 75°
2026-05-08 02:42 30.83521 -86.69196 2994 ft 115 kts 75°
2026-05-08 02:43 30.83729 -86.68279 2954 ft 118 kts 74°
2026-05-08 02:43 30.83898 -86.67348 2958 ft 117 kts 79°
2026-05-08 02:43 30.84048 -86.66414 2956 ft 117 kts 79°
2026-05-08 02:43 30.84136 -86.65490 2978 ft 115 kts 86°
2026-05-08 02:44 30.84213 -86.64585 3115 ft 105 kts 84°
2026-05-08 02:44 30.84312 -86.63679 3099 ft 123 kts 84°
2026-05-08 02:44 30.84437 -86.62679 3090 ft 127 kts 81°
2026-05-08 02:44 30.84556 -86.61652 3091 ft 129 kts 84°
2026-05-08 02:45 30.84632 -86.60653 3092 ft 128 kts 85°
2026-05-08 02:45 30.84719 -86.59634 3132 ft 125 kts 86°
2026-05-08 02:45 30.84757 -86.58610 3166 ft 129 kts 90°
2026-05-08 02:45 30.84762 -86.57555 3297 ft 132 kts 86°
2026-05-08 02:46 30.84849 -86.56452 3272 ft 137 kts 82°
2026-05-08 02:46 30.85027 -86.55356 2996 ft 134 kts 75°
2026-05-08 02:46 30.85229 -86.54329 2777 ft 126 kts 71°
2026-05-08 02:46 30.85376 -86.53471 2930 ft 91 kts 82°
2026-05-08 02:47 30.85466 -86.52776 2961 ft 90 kts 78°
2026-05-08 02:47 30.85597 -86.52057 2930 ft 91 kts 78°
2026-05-08 02:47 30.85707 -86.51341 2930 ft 87 kts 76°
2026-05-08 02:47 30.85829 -86.50658 2934 ft 85 kts 77°
2026-05-08 02:48 30.85909 -86.50223 2970 ft 82 kts 75°
2026-05-08 02:48 30.86058 -86.49578 2990 ft 84 kts 71°
2026-05-08 02:48 30.86241 -86.48938 3030 ft 83 kts 73°
2026-05-08 02:48 30.86409 -86.48278 3032 ft 88 kts 72°
2026-05-08 02:49 30.86595 -86.47566 2984 ft 94 kts 68°
2026-05-08 02:49 30.86841 -86.46853 2939 ft 94 kts 65°
2026-05-08 02:49 30.87077 -86.46180 3004 ft 84 kts 65°
2026-05-08 02:49 30.87318 -86.45557 3054 ft 87 kts 66°
2026-05-08 02:50 30.87550 -86.44833 3095 ft 108 kts 72°
2026-05-08 02:50 30.87753 -86.43949 3119 ft 114 kts 70°
2026-05-08 02:50 30.88285 -86.43281 3065 ft 121 kts 31°
2026-05-08 02:50 30.88993 -86.42688 2961 ft 126 kts 35°
2026-05-08 02:51 30.89666 -86.42055 2957 ft 123 kts 34°
2026-05-08 02:51 30.90318 -86.41432 2937 ft 124 kts 38°
2026-05-08 02:51 30.90957 -86.40758 2923 ft 124 kts 45°
2026-05-08 02:51 30.91597 -86.40135 3010 ft 114 kts 33°
2026-05-08 02:52 30.92241 -86.39587 3075 ft 113 kts 35°
2026-05-08 02:52 30.92844 -86.38960 3073 ft 121 kts 44°
2026-05-08 02:52 30.93481 -86.38323 3108 ft 119 kts 32°
2026-05-08 02:52 30.94174 -86.37778 3048 ft 124 kts 31°
2026-05-08 02:53 30.94898 -86.37216 3030 ft 125 kts 30°
2026-05-08 02:53 30.95647 -86.36679 2962 ft 127 kts 29°
2026-05-08 02:53 30.96377 -86.36083 2909 ft 128 kts 33°
2026-05-08 02:53 30.97093 -86.35480 2851 ft 128 kts 33°
2026-05-08 02:54 30.97788 -86.34792 2740 ft 132 kts 35°
2026-05-08 02:54 30.98542 -86.34237 2753 ft 125 kts 24°
2026-05-08 02:54 30.99294 -86.33768 2835 ft 113 kts 27°
2026-05-08 02:54 30.99945 -86.33327 3024 ft 110 kts 28°
2026-05-08 02:55 31.00597 -86.32813 3071 ft 115 kts 31°
2026-05-08 02:55 31.02042 -86.31821 3031 ft 121 kts 26°
2026-05-08 02:55 31.02752 -86.31368 3149 ft 113 kts 14°
2026-05-08 02:56 31.03560 -86.31267 3103 ft 117 kts 357°
2026-05-08 02:56 31.04373 -86.31280 3084 ft 123 kts 352°
2026-05-08 02:56 31.05278 -86.31389 2854 ft 132 kts 349°
2026-05-08 02:56 31.06141 -86.31506 2923 ft 119 kts 347°
2026-05-08 02:57 31.06984 -86.31747 2715 ft 132 kts 341°
2026-05-08 02:57 31.07870 -86.32017 2629 ft 129 kts 340°
2026-05-08 02:57 31.08704 -86.32305 2635 ft 124 kts 344°
2026-05-08 02:57 31.09564 -86.32496 2615 ft 112 kts 349°
2026-05-08 02:58 31.10203 -86.32595 3068 ft 84 kts 351°
2026-05-08 02:58 31.10875 -86.32655 3005 ft 112 kts 354°
2026-05-08 02:58 31.11691 -86.32608 2970 ft 117 kts
2026-05-08 02:58 31.12485 -86.32563 2998 ft 118 kts 351°
2026-05-08 02:59 31.13303 -86.32778 2963 ft 118 kts 338°
2026-05-08 02:59 31.14012 -86.33192 3064 ft 107 kts 321°
2026-05-08 02:59 31.14714 -86.33474 3119 ft 113 kts 350°
2026-05-08 02:59 31.15500 -86.33466 3150 ft 117 kts 359°
2026-05-08 03:00 31.16304 -86.33643 3042 ft 122 kts 331°
2026-05-08 03:00 31.17083 -86.34122 2912 ft 123 kts 330°
2026-05-08 03:00 31.17925 -86.34218 2858 ft 127 kts 10°
2026-05-08 03:00 31.18695 -86.33752 2912 ft 121 kts 28°
2026-05-08 03:01 31.19403 -86.33182 2901 ft 125 kts 33°
2026-05-08 03:01 31.20007 -86.32478 2965 ft 123 kts 54°
2026-05-08 03:01 31.20415 -86.31592 2977 ft 128 kts 61°
2026-05-08 03:01 31.20890 -86.30672 2834 ft 135 kts 56°
2026-05-08 03:02 31.21279 -86.29677 2767 ft 136 kts 66°
2026-05-08 03:02 31.21660 -86.28681 2770 ft 132 kts 68°
2026-05-08 03:02 31.21642 -86.27616 2635 ft 140 kts 114°
2026-05-08 03:02 31.20983 -86.26872 2674 ft 124 kts 162°
2026-05-08 03:03 31.20252 -86.26727 3003 ft 94 kts 190°
2026-05-08 03:03 31.19620 -86.26954 3080 ft 98 kts 214°
2026-05-08 03:03 31.19040 -86.27348 3221 ft 96 kts 213°
2026-05-08 03:03 31.18477 -86.27759 3301 ft 97 kts 224°
2026-05-08 03:04 31.17926 -86.28270 3307 ft 107 kts 212°
2026-05-08 03:04 31.17130 -86.28317 3166 ft 126 kts 165°
2026-05-08 03:04 31.16475 -86.27599 3060 ft 132 kts 121°
2026-05-08 03:04 31.16219 -86.26570 3017 ft 132 kts 103°
2026-05-08 03:05 31.15981 -86.25514 2902 ft 137 kts 104°
2026-05-08 03:05 31.15792 -86.24435 2868 ft 134 kts 101°
2026-05-08 03:05 31.15607 -86.23350 2789 ft 136 kts 103°
2026-05-08 03:05 31.15357 -86.22307 2768 ft 134 kts 108°
2026-05-08 03:06 31.15053 -86.21269 2665 ft 136 kts 114°
2026-05-08 03:06 31.14697 -86.20275 2642 ft 126 kts 108°
2026-05-08 03:06 31.14715 -86.19343 2832 ft 114 kts 66°
2026-05-08 03:06 31.15213 -86.18611 2828 ft 120 kts 38°
2026-05-08 03:07 31.15922 -86.18035 2785 ft 123 kts 30°
2026-05-08 03:07 31.16652 -86.17599 2871 ft 116 kts 15°
2026-05-08 03:07 31.17456 -86.17349 2834 ft 122 kts
2026-05-08 03:07 31.18278 -86.17193 2908 ft 113 kts 359°
2026-05-08 03:08 31.18997 -86.17465 2874 ft 112 kts 321°
2026-05-08 03:08 31.19531 -86.18147 2780 ft 116 kts 300°
2026-05-08 03:08 31.19893 -86.18947 2814 ft 111 kts 289°
2026-05-08 03:08 31.20002 -86.19872 2718 ft 112 kts 276°
2026-05-08 03:09 31.20076 -86.20651 3013 ft 90 kts 270°
2026-05-08 03:09 31.20005 -86.21429 3016 ft 101 kts 267°
2026-05-08 03:09 31.19888 -86.22268 2971 ft 111 kts 253°
2026-05-08 03:09 31.19626 -86.23100 2974 ft 108 kts 246°
2026-05-08 03:10 31.19191 -86.23821 2963 ft 111 kts 229°
2026-05-08 03:10 31.18499 -86.24288 2895 ft 119 kts 206°
2026-05-08 03:10 31.17769 -86.24689 2916 ft 116 kts 210°
2026-05-08 03:10 31.17038 -86.25132 2832 ft 122 kts 212°
2026-05-08 03:11 31.16251 -86.25567 2721 ft 127 kts 204°
2026-05-08 03:11 31.15449 -86.25915 2753 ft 118 kts 208°
2026-05-08 03:11 31.14757 -86.26340 2793 ft 115 kts 206°
2026-05-08 03:11 31.13985 -86.26188 2767 ft 126 kts 141°
2026-05-08 03:12 31.13727 -86.25266 2847 ft 120 kts 81°
2026-05-08 03:12 31.14216 -86.24492 2778 ft 124 kts 32°
2026-05-08 03:12 31.14907 -86.23977 2912 ft 116 kts 26°
2026-05-08 03:12 31.15686 -86.23563 2713 ft 134 kts 14°
2026-05-08 03:13 31.16575 -86.23295 2700 ft 125 kts 13°
2026-05-08 03:13 31.17382 -86.23020 2808 ft 116 kts 17°
2026-05-08 03:13 31.18155 -86.22903 2859 ft 117 kts 347°
2026-05-08 03:13 31.18926 -86.23122 2926 ft 114 kts 333°
2026-05-08 03:14 31.19569 -86.23617 2995 ft 107 kts 314°
2026-05-08 03:14 31.20018 -86.24283 3030 ft 104 kts 301°
2026-05-08 03:14 31.20345 -86.25061 2990 ft 106 kts 289°
2026-05-08 03:14 31.20518 -86.25892 2981 ft 107 kts 277°
2026-05-08 03:15 31.20545 -86.26780 2921 ft 112 kts 267°
2026-05-08 03:15 31.20429 -86.27668 2953 ft 107 kts 255°
2026-05-08 03:15 31.20099 -86.28404 3113 ft 99 kts 240°
2026-05-08 03:15 31.19619 -86.29015 3110 ft 108 kts 222°
2026-05-08 03:16 31.18878 -86.29343 3043 ft 117 kts 194°
2026-05-08 03:16 31.18061 -86.29362 3043 ft 120 kts 171°
2026-05-08 03:16 31.17459 -86.28724 3048 ft 128 kts 111°
2026-05-08 03:16 31.17587 -86.27700 2972 ft 130 kts 56°
2026-05-08 03:17 31.18274 -86.27081 2978 ft 125 kts 23°
2026-05-08 03:17 31.18982 -86.26519 2971 ft 129 kts 47°
2026-05-08 03:17 31.19498 -86.25628 2922 ft 130 kts 56°
2026-05-08 03:17 31.20008 -86.24779 2930 ft 128 kts 48°
2026-05-08 03:18 31.20570 -86.24016 2973 ft 122 kts 42°
2026-05-08 03:18 31.21124 -86.23281 3059 ft 122 kts 51°
2026-05-08 03:18 31.21647 -86.22499 3116 ft 120 kts 49°
2026-05-08 03:18 31.22164 -86.21729 3157 ft 123 kts 47°
2026-05-08 03:19 31.22660 -86.20886 3148 ft 127 kts 52°
2026-05-08 03:19 31.23263 -86.20136 3116 ft 132 kts 38°
2026-05-08 03:19 31.23966 -86.19402 3011 ft 136 kts 38°
2026-05-08 03:19 31.24672 -86.18676 2977 ft 133 kts 40°
2026-05-08 03:20 31.25312 -86.17884 2936 ft 133 kts 46°
2026-05-08 03:20 31.25876 -86.17040 2922 ft 131 kts 53°
2026-05-08 03:20 31.26359 -86.16127 2906 ft 131 kts 59°
2026-05-08 03:20 31.26759 -86.15240 3083 ft 120 kts 63°
2026-05-08 03:21 31.27085 -86.14332 2955 ft 122 kts 64°
2026-05-08 03:21 31.27409 -86.13442 2690 ft 115 kts 64°
2026-05-08 03:21 31.27537 -86.12572 2448 ft 107 kts 101°
2026-05-08 03:21 31.27090 -86.11904 2107 ft 107 kts 150°
2026-05-08 03:22 31.26410 -86.11692 2040 ft 99 kts 180°
2026-05-08 03:22 31.25766 -86.11848 2009 ft 91 kts 211°
2026-05-08 03:22 31.25311 -86.12338 1999 ft 82 kts 235°
2026-05-08 03:22 31.24969 -86.12814 2069 ft 76 kts 236°
2026-05-08 03:23 31.24632 -86.13324 2022 ft 83 kts 242°
2026-05-08 03:23 31.24380 -86.13930 2005 ft 83 kts 259°
2026-05-08 03:23 31.24384 -86.14552 2003 ft 72 kts 287°
2026-05-08 03:23 31.24475 -86.15129 2068 ft 75 kts 286°
2026-05-08 03:24 31.24589 -86.15758 2075 ft 82 kts 288°
2026-05-08 03:24 31.24726 -86.16454 1989 ft 96 kts 283°
2026-05-08 03:24 31.24861 -86.17210 2023 ft 92 kts 285°
2026-05-08 03:24 31.25006 -86.17947 1987 ft 96 kts 288°
2026-05-08 03:25 31.25159 -86.18683 1998 ft 93 kts 287°
2026-05-08 03:25 31.25306 -86.19441 1937 ft 95 kts 285°
2026-05-08 03:25 31.25456 -86.20177 1946 ft 92 kts 286°
2026-05-08 03:25 31.25632 -86.20924 1832 ft 99 kts 286°
2026-05-08 03:26 31.25787 -86.21745 1699 ft 106 kts 287°
2026-05-08 03:26 31.26039 -86.22536 1671 ft 100 kts 297°
2026-05-08 03:26 31.26334 -86.23270 1647 ft 100 kts 299°
2026-05-08 03:26 31.26637 -86.23999 1625 ft 101 kts 300°
2026-05-08 03:27 31.26927 -86.24715 1645 ft 97 kts 300°
2026-05-08 03:27 31.27201 -86.25446 1603 ft 100 kts 299°
2026-05-08 03:27 31.27509 -86.26172 1624 ft 96 kts 301°
2026-05-08 03:27 31.27732 -86.26904 1642 ft 97 kts 292°
2026-05-08 03:28 31.27945 -86.27663 1627 ft 99 kts 294°
2026-05-08 03:28 31.28159 -86.28432 1619 ft 100 kts 292°
2026-05-08 03:28 31.28363 -86.29205 1578 ft 99 kts 291°
2026-05-08 03:28 31.28560 -86.29944 1572 ft 92 kts 291°
2026-05-08 03:29 31.28739 -86.30657 1621 ft 90 kts 291°
2026-05-08 03:29 31.28896 -86.31358 1651 ft 88 kts 288°
2026-05-08 03:29 31.29040 -86.32063 1649 ft 91 kts 288°
2026-05-08 03:29 31.29189 -86.32802 1572 ft 103 kts 281°
2026-05-08 03:30 31.29516 -86.34455 1396 ft 107 kts 293°
2026-05-08 03:30 31.29822 -86.35870 1227 ft 108 kts 284°
2026-05-08 03:31 31.30413 -86.37614 659 ft 118 kts 292°
2026-05-08 03:31 31.30905 -86.39288 842 ft 104 kts 292°
2026-05-08 03:32 31.31089 -86.40074 1070 ft 98 kts 289°
2026-05-08 03:32 31.31269 -86.40846 1189 ft 98 kts 291°
2026-05-08 03:32 31.31448 -86.41614 1314 ft 99 kts 287°
2026-05-08 03:32 31.31545 -86.42419 1396 ft 104 kts 283°
2026-05-08 03:33 31.31673 -86.43265 1492 ft 101 kts 285°
2026-05-08 03:33 31.31829 -86.44021 1702 ft 93 kts 302°
2026-05-08 03:33 31.32066 -86.44734 1837 ft 97 kts 295°
2026-05-08 03:33 31.32279 -86.45467 2001 ft 94 kts 292°
2026-05-08 03:34 31.32484 -86.46189 2146 ft 93 kts 294°
2026-05-08 03:34 31.32728 -86.46912 2232 ft 96 kts 292°
2026-05-08 03:34 31.32956 -86.47628 2442 ft 92 kts 293°
2026-05-08 03:34 31.33172 -86.48342 2537 ft 102 kts 290°
2026-05-08 03:35 31.33421 -86.49152 2553 ft 108 kts 290°
2026-05-08 03:35 31.33666 -86.49993 2558 ft 110 kts 290°
2026-05-08 03:35 31.33909 -86.50836 2587 ft 111 kts 290°
2026-05-08 03:35 31.34200 -86.51709 2518 ft 117 kts 295°
2026-05-08 03:36 31.34555 -86.52561 2523 ft 116 kts 295°
2026-05-08 03:36 31.34802 -86.53445 2513 ft 116 kts 284°
2026-05-08 03:36 31.34993 -86.54372 2464 ft 116 kts 283°
2026-05-08 03:36 31.35189 -86.55293 2429 ft 118 kts 285°
2026-05-08 03:37 31.35358 -86.56226 2435 ft 116 kts 283°
2026-05-08 03:37 31.35512 -86.57133 2471 ft 111 kts 282°
2026-05-08 03:37 31.35664 -86.58014 2442 ft 112 kts 283°
2026-05-08 03:37 31.35836 -86.58891 2466 ft 110 kts 284°
2026-05-08 03:38 31.35998 -86.59780 2436 ft 115 kts 283°
2026-05-08 03:38 31.36171 -86.60706 2337 ft 119 kts 285°
2026-05-08 03:38 31.36365 -86.61595 2483 ft 99 kts 289°
2026-05-08 03:38 31.36591 -86.62332 2590 ft 100 kts 294°
2026-05-08 03:39 31.36894 -86.63094 2611 ft 102 kts 294°
2026-05-08 03:39 31.37232 -86.63841 2646 ft 105 kts 295°
2026-05-08 03:39 31.37465 -86.64636 2737 ft 101 kts 283°
2026-05-08 03:39 31.37327 -86.65490 2631 ft 117 kts 240°
2026-05-08 03:40 31.36649 -86.66032 2673 ft 120 kts 203°
2026-05-08 03:40 31.35764 -86.66078 2534 ft 131 kts 172°
2026-05-08 03:40 31.35047 -86.65485 2523 ft 133 kts 124°
2026-05-08 03:40 31.34456 -86.64679 2534 ft 124 kts 131°
2026-05-08 03:41 31.33969 -86.63877 2499 ft 121 kts 119°
2026-05-08 03:41 31.33994 -86.62957 2363 ft 118 kts 52°
2026-05-08 03:41 31.34488 -86.62207 2350 ft 107 kts 48°
2026-05-08 03:41 31.34818 -86.61521 2544 ft 94 kts 69°
2026-05-08 03:42 31.34804 -86.60744 2597 ft 99 kts 102°
2026-05-08 03:42 31.34615 -86.59964 2659 ft 102 kts 104°
2026-05-08 03:42 31.34431 -86.59101 2582 ft 113 kts 102°
2026-05-08 03:42 31.34159 -86.58248 2592 ft 110 kts 122°
2026-05-08 03:43 31.33596 -86.57640 2547 ft 114 kts 154°
2026-05-08 03:43 31.32859 -86.57416 2581 ft 105 kts 184°
2026-05-08 03:43 31.32192 -86.57649 2568 ft 101 kts 220°
2026-05-08 03:43 31.31810 -86.58291 2604 ft 92 kts 261°
2026-05-08 03:44 31.31908 -86.59017 2570 ft 96 kts 288°
2026-05-08 03:44 31.32110 -86.59789 2481 ft 102 kts 285°
2026-05-08 03:44 31.32287 -86.60581 2502 ft 95 kts 287°
2026-05-08 03:44 31.32477 -86.61306 2501 ft 95 kts 288°
2026-05-08 03:45 31.32668 -86.62040 2496 ft 93 kts 288°
2026-05-08 03:45 31.32982 -86.62658 2597 ft 85 kts 311°
2026-05-08 03:45 31.33462 -86.62994 2725 ft 80 kts 342°
2026-05-08 03:45 31.34044 -86.62905 2748 ft 98 kts 17°
2026-05-08 03:46 31.34638 -86.62352 2550 ft 119 kts 49°
2026-05-08 03:46 31.34901 -86.61451 2466 ft 121 kts 88°
2026-05-08 03:46 31.34680 -86.60525 2474 ft 113 kts 102°
2026-05-08 03:46 31.34454 -86.59653 2498 ft 111 kts 105°
2026-05-08 03:47 31.34209 -86.58810 2523 ft 110 kts 109°
2026-05-08 03:47 31.33934 -86.57980 2558 ft 109 kts 111°
2026-05-08 03:47 31.33632 -86.57171 2570 ft 110 kts 113°
2026-05-08 03:47 31.33314 -86.56331 2538 ft 114 kts 112°
2026-05-08 03:48 31.33090 -86.55461 2558 ft 111 kts 103°
2026-05-08 03:48 31.32760 -86.54652 2537 ft 113 kts 129°
2026-05-08 03:48 31.32205 -86.54005 2516 ft 115 kts 140°
2026-05-08 03:48 31.31610 -86.53361 2462 ft 117 kts 138°
2026-05-08 03:49 31.30994 -86.52727 2399 ft 119 kts 138°
2026-05-08 03:49 31.30382 -86.52080 2361 ft 119 kts 136°
2026-05-08 03:49 31.29853 -86.51337 2303 ft 114 kts 119°
2026-05-08 03:49 31.29478 -86.50620 2502 ft 100 kts 127°
2026-05-08 03:50 31.29052 -86.49958 2530 ft 104 kts 127°
2026-05-08 03:50 31.28615 -86.49256 2496 ft 109 kts 127°
2026-05-08 03:50 31.28200 -86.48467 2379 ft 116 kts 116°
2026-05-08 03:50 31.27857 -86.47589 2258 ft 122 kts 112°
2026-05-08 03:51 31.27509 -86.46682 2251 ft 114 kts 109°
2026-05-08 03:51 31.27262 -86.45891 2429 ft 96 kts 106°
2026-05-08 03:51 31.27050 -86.45136 2598 ft 106 kts 111°
2026-05-08 03:51 31.26719 -86.44301 2670 ft 118 kts 119°
2026-05-08 03:52 31.26344 -86.43413 2679 ft 127 kts 117°
2026-05-08 03:52 31.25939 -86.42483 2686 ft 132 kts 116°
2026-05-08 03:52 31.25550 -86.41495 2645 ft 136 kts 112°
2026-05-08 03:52 31.25194 -86.40462 2613 ft 137 kts 113°
2026-05-08 03:53 31.24828 -86.39437 2572 ft 136 kts 111°
2026-05-08 03:53 31.24452 -86.38399 2490 ft 139 kts 112°
2026-05-08 03:53 31.24090 -86.37368 2489 ft 137 kts 109°
2026-05-08 03:53 31.23770 -86.36330 2465 ft 137 kts 107°
2026-05-08 03:54 31.23552 -86.35266 2492 ft 132 kts 99°
2026-05-08 03:54 31.23349 -86.34205 2457 ft 134 kts 103°
2026-05-08 03:54 31.23156 -86.33179 2517 ft 130 kts 98°
2026-05-08 03:54 31.22999 -86.32117 2478 ft 134 kts 97°
2026-05-08 03:55 31.22845 -86.31051 2472 ft 132 kts 99°
2026-05-08 03:55 31.22699 -86.30001 2506 ft 128 kts 97°
2026-05-08 03:55 31.22581 -86.28996 2581 ft 127 kts 96°
2026-05-08 03:55 31.22578 -86.27951 2573 ft 131 kts 80°
2026-05-08 03:56 31.22781 -86.26902 2512 ft 133 kts 72°
2026-05-08 03:56 31.22993 -86.25864 2534 ft 130 kts 73°
2026-05-08 03:56 31.23154 -86.24801 2483 ft 134 kts 76°
2026-05-08 03:56 31.23365 -86.23751 2504 ft 131 kts 73°
2026-05-08 03:57 31.23577 -86.22734 2561 ft 130 kts 73°
2026-05-08 03:57 31.23800 -86.21682 2509 ft 135 kts 73°
2026-05-08 03:57 31.24025 -86.20616 2492 ft 134 kts 73°
2026-05-08 03:57 31.24249 -86.19560 2501 ft 132 kts 71°
2026-05-08 03:58 31.24536 -86.18533 2509 ft 134 kts 68°
2026-05-08 03:58 31.24823 -86.17492 2500 ft 134 kts 70°
2026-05-08 03:58 31.25101 -86.16439 2495 ft 135 kts 70°
2026-05-08 03:58 31.25363 -86.15396 2430 ft 134 kts 71°
2026-05-08 03:59 31.25557 -86.14332 2246 ft 134 kts 75°
2026-05-08 03:59 31.25735 -86.13269 2012 ft 134 kts 75°
2026-05-08 03:59 31.25900 -86.12236 1959 ft 121 kts 75°
2026-05-08 03:59 31.25816 -86.11320 1986 ft 118 kts 116°
2026-05-08 04:00 31.25142 -86.10839 1967 ft 116 kts 181°
2026-05-08 04:00 31.24486 -86.11236 1987 ft 108 kts 237°
2026-05-08 04:00 31.24171 -86.12017 1978 ft 104 kts 254°
2026-05-08 04:00 31.23897 -86.12781 2016 ft 100 kts 258°
2026-05-08 04:01 31.23915 -86.13567 2052 ft 95 kts 287°
2026-05-08 04:01 31.24072 -86.14331 2049 ft 98 kts 287°
2026-05-08 04:01 31.24234 -86.15108 2026 ft 99 kts 291°
2026-05-08 04:01 31.24459 -86.15865 2012 ft 97 kts 293°
2026-05-08 04:02 31.24685 -86.16591 2019 ft 95 kts 296°
2026-05-08 04:02 31.24937 -86.17302 2051 ft 94 kts 295°
2026-05-08 04:02 31.25166 -86.18031 2042 ft 96 kts 294°
2026-05-08 04:02 31.25368 -86.18784 2038 ft 98 kts 291°
2026-05-08 04:03 31.25569 -86.19550 2035 ft 101 kts 290°
2026-05-08 04:03 31.25941 -86.21178 1896 ft 107 kts 291°
2026-05-08 04:03 31.26147 -86.22043 1721 ft 112 kts 288°
2026-05-08 04:04 31.26327 -86.22910 1665 ft 107 kts 288°
2026-05-08 04:04 31.26503 -86.23745 1622 ft 104 kts 288°
2026-05-08 04:04 31.26682 -86.24548 1634 ft 100 kts 289°
2026-05-08 04:04 31.26899 -86.25340 1568 ft 104 kts 295°
2026-05-08 04:05 31.27152 -86.26070 1685 ft 93 kts 296°
2026-05-08 04:05 31.27390 -86.26785 1676 ft 95 kts 297°
2026-05-08 04:05 31.27652 -86.27510 1624 ft 101 kts 297°
2026-05-08 04:05 31.27921 -86.28284 1594 ft 104 kts 297°
2026-05-08 04:06 31.28189 -86.29076 1559 ft 104 kts 295°
2026-05-08 04:06 31.28424 -86.29827 1660 ft 96 kts 294°
2026-05-08 04:06 31.28625 -86.30575 1657 ft 98 kts 294°
2026-05-08 04:06 31.28831 -86.31333 1640 ft 101 kts 292°
2026-05-08 04:07 31.29054 -86.32144 1430 ft 109 kts 292°
2026-05-08 04:07 31.29285 -86.33028 1163 ft 113 kts 288°
2026-05-08 04:07 31.29492 -86.33892 1089 ft 108 kts 287°
2026-05-08 04:07 31.29696 -86.34705 1043 ft 101 kts 289°
2026-05-08 04:08 31.29885 -86.35470 977 ft 95 kts 289°
2026-05-08 04:08 31.30062 -86.36191 901 ft 96 kts 290°
2026-05-08 04:08 31.30252 -86.36949 675 ft 98 kts 288°
2026-05-08 04:08 31.30438 -86.37693 483 ft 88 kts 288°
2026-05-08 04:09 31.30574 -86.38223 389 ft 47 kts 288°
2026-05-08 04:09 31.30634 -86.38453 337 ft 16 kts 294°
2026-05-08 04:09 31.30651 -86.38524 310 ft 4 kts 295°
2026-05-08 04:09 31.30652 -86.38526 309 ft 0 kts 288°
2026-05-08 04:10 31.30657 -86.38547 322 ft 9 kts 285°
2026-05-08 04:10 31.30642 -86.38624 321 ft 13 kts 206°
2026-05-08 04:10 31.30589 -86.38676 322 ft 13 kts 291°
2026-05-08 04:10 31.30612 -86.38793 322 ft 19 kts 293°
2026-05-08 04:11 31.30653 -86.38957 330 ft 18 kts 296°
2026-05-08 04:11 31.30691 -86.39095 327 ft 18 kts 293°
2026-05-08 04:11 31.30700 -86.39195 322 ft 10 kts 234°
2026-05-08 04:11 31.30686 -86.39257 324 ft 5 kts 226°
2026-05-08 04:12 31.30671 -86.39281 312 ft 2 kts 204°
2026-05-08 04:12 31.30670 -86.39281 312 ft 0 kts 198°